Girona, Spain

2:11 AM CEST on April 21, 2018 (GMT +0200)
Girona

Weather History for LEGE - January, 2013

Change the Weather History Date:

Saturday, January 12, 2013

  Actual Average Record
Temperature  
Mean Temperature 43 °F -  
Max Temperature 56 °F 56 °F 68 °F (2007)
Min Temperature 30 °F 35 °F 24 °F (2000)
Degree Days  
Heating Degree Days 22    
Moisture  
Dew Point 35 °F    
Average Humidity 85    
Maximum Humidity 100    
Minimum Humidity 50    
Precipitation  
Precipitation 0.00 in 0.07 in - ()
Sea Level Pressure  
Sea Level Pressure 30.00 in    
Wind  
Wind Speed 1 mph ()    
Max Wind Speed 4 mph    
Max Gust Speed -    
Visibility 6.1 miles    
Events      
Averages and records for this station are not official NWS values.
T = Trace of Precipitation, MM = Missing Value Source: Averaged Metar Reports

Daily Weather History Graph

Daily Weather History Graph

Search for Another Location

Airport or City:

Astronomy

Jan. 12, 2013 Rise Set
Actual Time 8:15 AM CET 5:39 PM CET
Civil Twilight 7:44 AM CET 6:10 PM CET
Nautical Twilight 7:09 AM CET 6:45 PM CET
Astronomical Twilight 6:36 AM CET 7:18 PM CET
Moon 8:21 AM CET (1/12) 6:52 PM CET (1/12)
Length of Visible Light 10h 26m
Length of Day
9h 24m
New Moon, 1% of the Moon is Illuminated
Jan 12
New Moon
Jan 19
First Quarter
Jan 27
Full
Feb 3
Last Quarter
Feb 10
New

Hourly Weather History & Observations

Time (CET) Temp. Windchill Dew Point Humidity Pressure Visibility Wind Dir Wind Speed Gust Speed Precip Events Conditions
1:00 AM 33.8 °F - 33.8 °F 100% 30.09 in 4.3 mi Calm Calm - N/A   Unknown
1:10 AM 32.0 °F - 32.0 °F 100% 30.09 in 3.7 mi Calm Calm - N/A   Partly Cloudy
1:30 AM 33.8 °F - 33.8 °F 100% 30.09 in 4.3 mi Variable 2.3 mph - N/A   Unknown
2:00 AM 32.0 °F - 32.0 °F 100% 30.09 in 3.7 mi Calm Calm - N/A   Partly Cloudy
2:30 AM 33.8 °F - 33.8 °F 100% 30.09 in 4.3 mi Calm Calm - N/A   Scattered Clouds
3:00 AM 35.6 °F - 35.6 °F 100% 30.06 in 5.6 mi NNE 1.2 mph - N/A   Mostly Cloudy
3:30 AM 35.6 °F - 35.6 °F 100% 30.06 in 5.6 mi Calm Calm - N/A   Mostly Cloudy
4:00 AM 33.8 °F - 33.8 °F 100% 30.06 in 5.6 mi Calm Calm - N/A   Mostly Cloudy
4:30 AM 33.8 °F - 33.8 °F 100% 30.06 in 5.6 mi Calm Calm - N/A   Mostly Cloudy
5:00 AM 33.8 °F - 33.8 °F 100% 30.04 in 5.6 mi Calm Calm - N/A   Scattered Clouds
5:30 AM 33.8 °F - 33.8 °F 100% 30.04 in 5.0 mi Calm Calm - N/A   Scattered Clouds
6:00 AM 32.0 °F - 32.0 °F 100% 30.04 in 5.0 mi Calm Calm - N/A   Scattered Clouds
6:30 AM 32.0 °F - 32.0 °F 100% 30.04 in 5.0 mi Calm Calm - N/A   Scattered Clouds
7:00 AM 34 °F - 33 °F 92% 30.05 in 9 mi Calm Calm - -   Partly Cloudy
7:00 AM 32.0 °F - 32.0 °F 100% 30.04 in 5.0 mi Calm Calm - N/A   Scattered Clouds
8:00 AM 30.2 °F - 30.2 °F 100% 30.04 in 5.6 mi NNE 1.2 mph - N/A   Partly Cloudy
8:30 AM 30.2 °F - 30.2 °F 100% 30.04 in 6.2 mi Calm Calm - N/A   Partly Cloudy
9:00 AM 30.2 °F - 30.2 °F 100% 30.04 in 6.2 mi Calm Calm - N/A   Partly Cloudy
9:30 AM 32.0 °F - 32.0 °F 100% 30.04 in 6.2 mi Calm Calm - N/A   Partly Cloudy
10:00 AM 33.8 °F - 33.8 °F 100% 30.04 in - Calm Calm - N/A   Clear
10:30 AM 37.4 °F - 37.4 °F 100% 30.04 in - Variable 1.2 mph - N/A   Clear
11:00 AM 37.4 °F - 37.4 °F 100% 30.04 in - Variable 1.2 mph - N/A   Clear
11:30 AM 41.0 °F - 37.4 °F 87% 30.04 in - Variable 1.2 mph - N/A   Clear
12:00 PM 44.6 °F - 37.4 °F 76% 30.04 in - SW 1.2 mph - N/A   Clear
12:30 PM 48.2 °F - 39.2 °F 71% 30.01 in - Calm Calm - N/A   Clear
1:00 PM 52 °F - 39 °F 50% 30.00 in 14 mi South 1.2 mph - -   Clear
1:00 PM 48.2 °F - 37.4 °F 66% 30.01 in - Calm Calm - N/A   Clear
1:30 PM 50.0 °F - 39.2 °F 66% 30.01 in - Variable 2.3 mph - N/A   Clear
2:00 PM 50.0 °F - 37.4 °F 62% 29.98 in - Variable 2.3 mph - N/A   Clear
2:30 PM 51.8 °F - 37.4 °F 58% 29.98 in - Variable 2.3 mph - N/A   Clear
3:00 PM 53.6 °F - 37.4 °F 54% 29.98 in - South 1.2 mph - N/A   Clear
3:30 PM 53.6 °F - 37.4 °F 54% 29.98 in - Calm Calm - N/A   Clear
4:30 PM 53.6 °F - 37.4 °F 54% 29.95 in - Calm Calm - N/A   Clear
5:00 PM 51.8 °F - 37.4 °F 58% 29.95 in - Calm Calm - N/A   Clear
5:30 PM 48.2 °F - 37.4 °F 66% 29.95 in - Calm Calm - N/A   Clear
6:00 PM 44.6 °F - 37.4 °F 76% 29.95 in - Calm Calm - N/A   Clear
6:30 PM 46.4 °F - 39.2 °F 76% 29.95 in - NNE 1.2 mph - N/A   Clear
7:00 PM 44 °F - 37 °F 68% 29.95 in 12 mi NNE 2.3 mph - -   Scattered Clouds
7:00 PM 42.8 °F 41.1 °F 35.6 °F 76% 29.95 in - North 3.5 mph - N/A   Clear
7:30 PM 42.8 °F - 37.4 °F 81% 29.95 in - Calm Calm - N/A   Clear
8:00 PM 42.8 °F - 35.6 °F 76% 29.95 in - West 1.2 mph - N/A   Clear
8:30 PM 39.2 °F 37.0 °F 33.8 °F 81% 29.95 in - SW 3.5 mph - N/A   Clear
9:00 PM 37.4 °F - 33.8 °F 87% 29.92 in 6.2 mi Variable 2.3 mph - N/A   Partly Cloudy
9:30 PM 39.2 °F - 33.8 °F 81% 29.92 in 6.2 mi NW 1.2 mph - N/A   Scattered Clouds
10:00 PM 37.4 °F - 33.8 °F 87% 29.92 in 6.2 mi Variable 1.2 mph - N/A   Scattered Clouds
10:30 PM 37.4 °F - 33.8 °F 87% 29.92 in 6.2 mi Calm Calm - N/A   Scattered Clouds
11:00 PM 37.4 °F - 33.8 °F 87% 29.92 in 6.2 mi Variable 1.2 mph - N/A   Mostly Cloudy
11:30 PM 39.2 °F - 35.6 °F 87% 29.89 in 6.2 mi Variable 1.2 mph - N/A   Mostly Cloudy
11:36 PM 39.2 °F - 35.6 °F 87% 29.89 in 6.2 mi Calm Calm - N/A   Drizzle